Location: Unspecified
(48.5670°N, 0.0000°E)
Time: 06:07:20
(UTC+00:00)

Vanguard 2 Rocket - Pass Details

Date: 31 August 2019
Orbit: 554 x 3327 km, 32.9° (Epoch: 19 September)

Event Time Altitude Azimuth Distance (km) Brightness Sun altitude
Rises 08:21:05 0° 265° (W) 6,467 10.8 29.3°
Reaches altitude 10° 08:30:51 10° 237° (WSW) 6,011 10.9 30.8°
Maximum altitude 08:35:01 11° 224° (SW) 6,061 11.0 31.4°
Drops below altitude 10° 08:39:20 10° 211° (SSW) 6,248 11.2 32.1°
Sets 08:50:40 0° 183° (S) 7,221 11.8 33.7°
